sat.trackr.live / text

‹ back to catalog

STARLINK-32875

NORAD 62951 · 2025-029D

PAYLOAD ACTIVE UNKNOWN

§ Identity

Operator
Country
US
Launch date
2025-02-11
Launch site
AFWTR
Launch vehicle
Mass (kg)
RCS (m²)

Purposes: comms

External: N2YO · Heavens-Above · Gunter

§ Orbital elements

Epoch: 2026-09-21T16:25:51.111840Z

Period
93.85 min
Inclination
53.1600°
Eccentricity
0.0000998
Mean motion
15.34408595 rev/d
Perigee alt
462.0 km
Apogee alt
463.4 km
Semi-major
6,840.8 km
B*
4.8102e-4
RAAN
35.8161°
Arg perigee
105.1234°
Mean anomaly
254.9879°
Rev number
9,142

§ Raw data

STARLINK-328751 62951U 25029D   26264.68461935  .00015915  00000+0  48102-3 0  99912 62951  53.1600  35.8161 0000998 105.1234 254.9879 15.34408595 91420

JSON: /api/v1/satellites/62951 · /tle

For live sub-satellite position, see the globe view (requires WebGL).

§ Visibility from observer

Set your observer location to see the next 7 days of passes ≥ 10°. The values pass through the URL so the page stays shareable.

No JS? Fill the form by hand. The geolocation button needs JavaScript.